"Pseudo-MPEC" for P119WFr

Created 2020 Nov 25 18:07:25 UT using Find_Orb

Click here for an explanation of pseudo-MPECs

 
 Astrometry: 
     P119WFr  C2020 11 20,QeH5L\Nq6txN:UNpW^!D_Z*a?Astrometry!o9tyI`H_f*g7taiF51
     P119WFr  C2020 11 20HDPL!5Nytb*['redacted;_*uWclick%t?B?_-PH?#J=ShereQshF51
     P119WFr  C2020 11 20YrAVforQHo6wLor-h:L'uYWu(vx,9R]2tp_kexplanation7ov:eF51

Station data:
(F51) Pan-STARRS 1, Haleakala  (N20.707235 W156.255910)  US/Hawaii.
   Observers N. Primak, A. Schultz, S. Watters, J. Thiel, T. Goggia. Measurer
   PS1 Science Consortium. 1.8-m Ritchey-Chrétien + CCD.

Orbital elements:  P119WFr
   Perihelion 2020 Nov 7.167591 +/- 33.4 TT =  4:01:19 (JD 2459160.667591)
Epoch 2020 Nov 20.0 TT = JDT 2459173.5   Earth MOID: 0.2795   AutoNEOCP
M   3.14857527 +/- 32               (J2000 ecliptic)
n   0.24536120 +/- 0.329            Peri.  318.29014 +/- 90
a   2.52696241 +/- 2.26             Node    79.14735 +/- 60
e   0.5199001 +/- 0.25              Incl.   17.55917 +/- 15
P   4.02                   H 22.5   G  0.15   U 12.0  SR
q 1.21319420 +/- 0.335    Q 3.84073061 +/- 39.8
From 3 observations 2020 Nov. 20 (44.7 min); mean residual 0".35
Residuals in arcseconds: 
201120 F51  .22+  .39+    201120 F51  .32-  .59-    201120 F51  .13+  .23+    

Ephemerides (geocentric):
Date (UTC) HH   RA              Dec         delta   r     elong  mag " sig PA
---- -- -- --  -------------   -----------  ------ ------ -----  --- ---- ---
2020 11 25 18  02 13 43.166   -17 20 27.68  .32484 1.2310 132.8 21.9  19d 156
2020 11 25 19  02 13 44.906   -17 17 18.01  .32489 1.2311 132.8 21.9  19d 156
2020 11 25 20  02 13 46.648   -17 14 08.29  .32494 1.2312 132.9 21.9  19d 156
2020 11 25 21  02 13 48.395   -17 10 58.54  .32499 1.2313 132.9 21.9  19d 155
2020 11 25 22  02 13 50.145   -17 07 48.75  .32504 1.2313 132.9 21.9  19d 155
2020 11 25 23  02 13 51.898   -17 04 38.92  .32509 1.2314 132.9 21.9  19d 155
2020 11 26 00  02 13 53.655   -17 01 29.05  .32513 1.2315 132.9 21.9  20d 154
2020 11 26 01  02 13 55.416   -16 58 19.14  .32518 1.2316 132.9 21.9  20d 154
2020 11 26 02  02 13 57.180   -16 55 09.20  .32523 1.2317 132.9 21.9  20d 154
2020 11 26 03  02 13 58.948   -16 51 59.22  .32529 1.2317 133.0 21.9  20d 154
2020 11 26 04  02 14 00.719   -16 48 49.21  .32534 1.2318 133.0 21.9  21d 154
2020 11 26 05  02 14 02.494   -16 45 39.16  .32539 1.2319 133.0 21.9  21d 153
2020 11 26 06  02 14 04.272   -16 42 29.08  .32544 1.2320 133.0 21.9  21d 153
2020 11 26 07  02 14 06.054   -16 39 18.97  .32549 1.2321 133.0 21.9  21d 153
2020 11 26 08  02 14 07.839   -16 36 08.82  .32554 1.2321 133.0 21.9  22d 153
2020 11 26 09  02 14 09.628   -16 32 58.63  .32560 1.2322 133.0 21.9  22d 153
2020 11 26 10  02 14 11.421   -16 29 48.42  .32565 1.2323 133.0 21.9  22d 153
2020 11 26 11  02 14 13.217   -16 26 38.17  .32570 1.2324 133.1 21.9  22d 153
2020 11 26 12  02 14 15.016   -16 23 27.89  .32576 1.2325 133.1 21.9  23d 153
2020 11 26 13  02 14 16.819   -16 20 17.58  .32581 1.2326 133.1 21.9  23d 153
2020 11 26 14  02 14 18.626   -16 17 07.25  .32587 1.2326 133.1 21.9  23d 153
2020 11 26 15  02 14 20.436   -16 13 56.88  .32592 1.2327 133.1 21.9  24d 153
2020 11 26 16  02 14 22.250   -16 10 46.48  .32598 1.2328 133.1 21.9  24d 153
2020 11 26 17  02 14 24.067   -16 07 36.05  .32603 1.2329 133.1 21.9  24d 153
2020 11 26 18  02 14 25.888   -16 04 25.60  .32609 1.2330 133.2 21.9  25d 153
2020 11 26 19  02 14 27.712   -16 01 15.12  .32614 1.2331 133.2 21.9  25d 153
2020 11 26 20  02 14 29.540   -15 58 04.61  .32620 1.2331 133.2 21.9  26d 154
2020 11 26 21  02 14 31.371   -15 54 54.07  .32626 1.2332 133.2 21.9  26d 154
2020 11 26 22  02 14 33.206   -15 51 43.51  .32631 1.2333 133.2 21.9  26d 154
2020 11 26 23  02 14 35.044   -15 48 32.92  .32637 1.2334 133.2 21.9  27d 155
2020 11 27 00  02 14 36.886   -15 45 22.31  .32643 1.2335 133.2 21.9  27d 155
2020 11 27 01  02 14 38.732   -15 42 11.67  .32649 1.2336 133.3 21.9  27d 155
2020 11 27 02  02 14 40.581   -15 39 01.01  .32655 1.2336 133.3 21.9  27d 156
2020 11 27 03  02 14 42.434   -15 35 50.32  .32661 1.2337 133.3 21.9  27d 156
2020 11 27 04  02 14 44.290   -15 32 39.62  .32667 1.2338 133.3 21.9  28d 156
2020 11 27 05  02 14 46.149   -15 29 28.89  .32673 1.2339 133.3 21.9  28d 156
2020 11 27 06  02 14 48.013   -15 26 18.13  .32679 1.2340 133.3 21.9  28d 157
2020 11 27 07  02 14 49.879   -15 23 07.36  .32685 1.2341 133.3 21.9  28d 157
2020 11 27 08  02 14 51.750   -15 19 56.57  .32691 1.2341 133.3 21.9  28d 157
2020 11 27 09  02 14 53.624   -15 16 45.75  .32697 1.2342 133.4 21.9  28d 157
2020 11 27 10  02 14 55.501   -15 13 34.92  .32703 1.2343 133.4 21.9  28d 158
2020 11 27 11  02 14 57.382   -15 10 24.06  .32710 1.2344 133.4 21.9  28d 158
2020 11 27 12  02 14 59.266   -15 07 13.19  .32716 1.2345 133.4 21.9  29d 158
2020 11 27 13  02 15 01.154   -15 04 02.30  .32722 1.2346 133.4 21.9  29d 158
2020 11 27 14  02 15 03.046   -15 00 51.39  .32728 1.2347 133.4 21.9  29d 158
2020 11 27 15  02 15 04.941   -14 57 40.47  .32735 1.2347 133.4 21.9  29d 159
2020 11 27 16  02 15 06.839   -14 54 29.52  .32741 1.2348 133.4 21.9  29d 159
2020 11 27 17  02 15 08.741   -14 51 18.57  .32748 1.2349 133.5 21.9  29d 159